INTELSAT 904 (IS-904) (27380 NORAD) Tracking and Keplerian Element Data

This shows tracking and keplerian element data for the satellite.

Feedback or suggestion? Click here.




ElementValue
Catalog27380
NameINTELSAT 904 (IS-904)
Epoch Orbit2280
Epoch Day201.04764216
Epoch Year2018
RAAN136.2046
Inclination0.0184
Eccentricity0.0002819
Argument of Perigee341.0447
Mean Anonmoly242.7621
Mean Motion1.00273325
Decay Rate1.19E-06
L11 27380U 02007A 18201.04764216 .00000119 00000-0 00000-0 0 9992
L22 27380 0.0184 136.2046 0002819 341.0447 242.7621 1.00273325 22809

Live tracking and technical data element details for INTELSAT 904 (IS-904) (NORAD 27380). INTELSAT 904 (IS-904) can be tracked NOW for your location showing map with azimuth and elevation plus other details from your city location.

Track the satellite on the map from your city or location and see movement details for azimuth, elevation, latitude, longitude, range, height, and movement on the map or in text.







IsCatalogInMostPopularTable: catalog: 27380, numindb: 38
Update: records affected: 1



GetName: 27380 INTELSAT 904 (IS-904)

Hit Count: updated at: Sat, 21 Jul 2018 07:50:12 GMT